User: anonymous   Login
Location: Unspecified
(0.0000°N, 0.0000°E)
Time: 19:45:47
(UTC+00:00)
Language:

SAUDISAT 4 - Orbit

View from above orbital plane
View from above orbital plane
View from above satellite
View from above satellite

Ground track
Ground track

The orbit data is extracted from the following two-line orbital elements,

1 40016U 14033G   24151.44685670  .00000936  00000-0  13708-3 0  9995
2 40016  97.6652 318.1309 0046553 348.1114  11.8994 14.77134891535581
Epoch (UTC): 30 May 2024 10:43:28
Eccentricity: 0.0046553
inclination: 97.6652°
perigee height: 606 km
apogee height: 671 km
right ascension of ascending node: 318.1309°
argument of perigee: 348.1114°
revolutions per day: 14.77134891
mean anomaly at epoch: 11.8994°
orbit number at epoch: 53558

The dashed part of the orbit path shows where the satellite is in the earth's shadow,  

DLR